Location: Castelbiague
(43.0361°N, 0.9246°E)
Time: 14:10:09
(UTC+00:00)

FALCON 9 DEB - Visible Passes

Search period start: 22 October 2021 00:00
Search period end: 01 November 2021 00:00
Orbit: 419 x 429 km, 53.0° (Epoch: 21 October)

Date Brightness Start Highest point End Pass type
(mag) Time Alt. Az. Time Alt. Az. Time Alt. Az.
23 Oct 5.8 19:06:33 10° SSW 19:06:59 13° SSW 19:06:59 13° SSW visible
24 Oct 4.6 18:21:14 10° S 18:23:32 22° SE 18:23:32 22° SE visible
25 Oct 5.2 17:36:27 10° SSE 17:38:14 14° SE 17:39:57 10° E visible
25 Oct 4.9 19:11:11 10° WSW 19:13:02 30° WSW 19:13:02 30° WSW visible
26 Oct 3.0 18:25:19 10° SW 18:28:42 67° SE 18:29:18 53° E visible
27 Oct 3.7 17:39:37 10° SSW 17:42:51 39° SE 17:45:28 14° ENE visible
27 Oct 5.3 19:16:34 10° W 19:18:33 25° WNW 19:18:33 25° WNW visible
28 Oct 3.9 18:30:21 10° WSW 18:33:39 45° NNW 18:34:36 35° NNE visible
29 Oct 3.3 17:44:15 10° WSW 17:47:40 69° NW 17:50:34 14° NE visible
29 Oct 5.9 19:22:21 10° WNW 19:23:37 16° NW 19:23:37 16° NW visible
30 Oct 4.9 18:35:58 10° WNW 18:38:47 24° NNW 18:39:31 22° N visible
31 Oct 4.6 17:49:36 10° W 17:52:41 30° NNW 17:55:20 13° NE visible
31 Oct 6.3 19:28:07 10° NW 19:28:24 11° NW 19:28:24 11° NW visible
